RH
86 79 74 71 68 68 66 64 63 58 64 75 75 75 81 76 63 52 45 39 31 26 21 14 12 13 14 16 15 13 11 9 8 8 9 10 9 10 9 9 9 8 9 9 8 8 7 6 6 4 5 5 4 12 24 35 43 52 66 83 91 94 97 99 95 89 84 80 84 89 83 76 70 65
92 86 79 75 71 70 69 66 65 62 63 71 72 70 77 87 84 66 51 43 34 28 26 19 14 14 16 19 20 19 17 13 10 8 8 9 9 10 9 8 9 8 9 9 8 8 7 7 7 5 5 5 4 6 15 32 53 73 93 101 100 99 99 101 99 96 98 93 88 97 101 96 91 83
95 92 85 80 76 73 72 70 67 66 66 67 69 70 75 87 93 78 60 52 40 30 28 24 18 15 16 20 23 24 24 19 12 8 7 8 9 9 9 8 8 9 9 9 8 8 7 7 7 6 5 5 6 4 5 22 47 70 93 101 100 101 100 101 98 96 100 99 96 99 100 99 99 98
92 93 89 84 82 78 75 73 70 69 68 67 68 71 75 85 93 86 72 65 51 36 31 28 24 19 16 21 25 26 26 22 15 10 7 7 8 9 9 9 9 9 9 9 9 8 8 8 7 7 7 5 5 6 6 19 43 67 90 101 101 100 99 100 101 100 100 97 97 99 99 99 100 102
90 91 91 88 85 82 79 77 75 72 70 70 70 72 77 84 91 90 82 75 62 45 36 33 30 24 19 20 24 23 20 18 15 12 9 8 9 9 10 9 9 9 9 8 8 8 7 8 7 7 7 6 5 5 5 17 46 76 93 99 99 100 101 100 99 100 101 99 98 99 99 98 95 93
92 91 92 91 87 84 82 81 79 76 74 73 72 75 80 84 91 95 88 80 67 51 43 41 36 30 25 22 21 19 17 16 14 12 10 9 9 10 10 10 10 9 9 8 7 8 7 7 8 8 7 7 6 11 25 47 73 92 98 97 95 96 97 98 101 100 97 97 99 99 100 100 94 84
93 91 91 91 90 87 85 83 82 80 78 77 77 77 81 86 93 97 92 84 74 56 47 49 46 38 31 25 19 16 15 14 13 12 10 9 10 11 11 10 10 9 8 8 7 8 8 7 8 8 7 8 8 15 34 53 64 68 67 61 55 55 60 64 71 71 64 68 82 90 94 97 96 90
96 95 93 92 92 90 87 85 84 83 81 81 81 81 85 90 95 98 92 87 81 63 49 50 51 45 37 29 21 18 17 16 14 12 10 10 11 11 11 10 9 8 8 8 8 7 8 7 7 8 7 8 9 11 17 21 24 25 24 21 17 20 25 24 26 30 32 40 60 78 85 86 91 94
100 99 97 95 95 93 91 89 87 86 84 84 84 86 89 93 98 99 93 90 86 69 52 49 52 50 42 30 22 20 18 17 18 18 14 13 13 12 11 9 8 8 7 8 7 7 7 7 7 7 8 8 8 9 11 11 11 11 10 11 11 12 13 12 12 17 23 28 35 46 53 58 67 74
100 100 98 97 98 97 95 93 90 89 88 88 88 88 90 94 99 100 95 93 87 69 54 50 54 57 48 31 23 22 21 25 33 33 27 24 24 21 16 12 10 9 8 8 8 8 9 9 9 9 9 9 9 9 9 9 9 9 9 9 10 10 10 11 11 12 15 18 19 23 30 38 45 49
100 101 100 99 100 100 99 97 94 93 92 92 91 90 91 94 99 100 97 95 86 68 56 54 57 60 51 36 28 28 32 39 45 44 41 44 45 35 24 20 14 9 9 10 11 12 12 11 11 11 10 10 11 11 11 11 10 10 10 9 10 10 10 10 11 12 14 17 21 24 26 31 38 47
100 100 100 100 100 100 100 98 97 96 95 95 95 95 95 97 100 101 99 95 84 67 60 63 62 57 49 39 32 34 42 50 55 57 60 64 56 37 25 21 14 10 12 14 14 14 13 12 11 11 11 10 11 12 12 14 14 13 13 13 12 13 12 12 11 12 14 16 20 21 22 29 38 47
100 100 100 100 100 100 100 99 99 99 97 97 98 98 98 100 101 100 100 95 82 69 68 69 64 56 51 43 39 44 49 53 61 67 68 69 58 39 28 21 13 13 16 16 16 15 13 13 12 12 12 11 11 13 15 18 21 22 23 25 26 26 24 23 22 23 25 27 29 33 39 50 56 58
100 100 100 100 100 100 99 100 100 100 100 100 100 99 99 101 101 100 101 95 82 73 73 70 62 55 50 42 39 40 42 53 72 79 73 70 62 46 34 23 14 16 20 19 19 19 18 18 15 15 15 13 13 14 17 23 29 34 38 41 42 43 42 42 42 43 45 47 50 55 62 70 74 77
99 99 99 100 100 100 100 100 100 100 101 100 100 100 100 101 101 100 101 95 84 78 75 69 60 50 44 41 36 29 38 65 85 81 74 75 66 52 44 33 20 19 22 25 26 24 25 24 18 17 17 15 16 18 24 33 40 46 50 51 51 50 50 52 53 56 61 67 73 78 81 85 89 90
100 99 99 100 100 100 100 100 100 100 100 100 100 101 100 100 101 100 100 96 87 80 73 67 58 48 41 36 28 28 50 76 81 72 74 74 60 49 47 37 24 20 24 30 31 26 25 24 19 18 17 15 17 21 29 39 47 52 55 53 53 55 56 60 66 74 83 87 90 93 93 95 98 97
100 100 100 100 100 100 100 100 100 100 100 100 100 100 100 101 101 100 101 98 88 78 71 63 54 45 36 29 28 40 57 68 72 75 73 56 39 38 42 34 26 24 25 29 30 25 23 23 21 19 16 16 20 24 29 39 48 53 54 54 56 59 65 72 78 86 95 97 97 98 99 99 100 100
100 99 100 100 100 100 100 100 100 100 100 100 100 100 100 100 100 101 100 93 83 76 68 58 47 39 35 38 46 54 59 70 82 79 58 36 29 35 37 32 27 25 24 28 29 26 24 23 22 20 17 18 22 25 30 40 49 54 55 58 61 64 72 82 87 91 95 99 100 100 100 101 100 100
99 100 100 100 100 100 100 100 100 100 101 100 100 100 100 99 100 99 95 87 80 74 64 52 43 38 40 50 62 70 81 93 85 58 35 26 28 33 32 29 27 25 26 28 29 28 26 24 24 22 20 21 24 28 37 45 52 58 61 63 66 71 79 88 93 95 96 97 99 99 100 100 100 100
99 100 100 100 100 100 100 100 101 101 101 100 100 100 100 101 100 95 90 85 78 68 56 47 44 49 59 71 82 88 89 78 52 30 26 28 30 35 36 31 28 27 28 28 29 30 27 25 28 25 21 24 27 33 43 51 57 62 64 65 68 69 73 79 84 89 93 96 97 98 100 101 100 100
100 100 100 100 100 100 100 100 100 101 100 100 100 100 100 101 99 93 88 83 75 66 63 62 68 79 86 88 86 78 61 42 29 28 31 30 31 36 36 32 31 32 30 28 30 31 27 28 33 29 25 29 34 38 45 53 61 65 63 66 69 65 65 72 78 83 88 95 100 100 100 100 100 101
100 100 100 100 100 100 100 100 100 100 100 100 100 100 100 100 96 89 85 85 84 86 89 91 93 95 89 78 67 54 39 29 28 31 32 32 34 35 34 34 35 34 29 27 30 32 29 31 35 36 36 34 33 41 52 58 65 70 69 69 70 68 69 74 76 76 78 85 94 97 99 101 100 99
100 100 100 100 100 100 100 100 101 100 100 100 100 100 101 99 91 85 84 85 85 88 89 87 86 83 73 59 46 34 27 28 31 33 35 36 36 36 37 37 38 35 31 28 30 32 32 33 36 48 62 57 41 48 66 73 74 74 72 72 70 68 72 79 80 79 77 77 80 84 91 100 101 99
100 100 100 100 100 100 100 101 100 100 100 100 100 100 99 94 86 83 86 85 79 74 72 70 69 64 53 38 28 26 29 34 35 35 35 36 37 39 39 38 39 38 33 31 34 33 33 35 38 52 78 84 67 59 66 74 77 73 70 74 73 67 71 81 86 86 84 80 80 82 87 95 101 102
100 99 99 100 100 100 101 100 99 99 100 100 101 100 95 90 86 85 84 77 64 56 56 56 53 45 34 27 27 32 35 35 34 33 35 36 38 39 40 40 40 37 33 33 35 33 32 36 42 53 71 83 82 74 66 64 71 74 74 78 77 72 74 82 84 83 82 82 83 85 86 88 95 100
100 100 98 97 99 99 100 101 100 99 99 99 100 99 95 92 89 80 68 55 45 42 44 43 37 29 26 29 33 35 35 34 33 34 34 35 37 37 38 39 39 36 35 34 34 34 33 35 41 52 65 74 82 88 80 66 64 73 81 85 85 82 81 85 86 84 85 90 93 91 88 86 90 92
99 100 98 97 96 96 97 99 101 99 98 99 100 99 95 88 76 59 47 42 41 40 37 31 28 27 30 34 34 33 32 31 31 32 32 33 35 35 35 36 36 35 36 36 35 34 34 34 37 46 59 70 82 92 92 80 73 78 86 91 94 93 88 88 90 88 90 97 100 98 97 93 92 91
98 98 100 98 95 95 95 98 101 99 97 99 96 87 79 68 53 42 40 40 38 33 28 26 28 32 34 34 32 30 30 30 30 32 32 33 34 34 33 33 34 34 35 37 37 35 33 34 35 40 51 64 79 91 94 90 88 91 93 93 90 88 87 90 93 93 96 101 101 100 101 98 94 92
98 99 99 95 93 97 98 99 101 99 98 101 90 66 52 45 38 34 36 34 29 26 27 30 33 33 33 32 31 31 32 33 33 33 34 34 34 33 32 30 30 32 34 36 37 37 36 34 34 37 43 56 75 90 96 98 98 98 99 96 87 82 87 94 98 98 99 102 101 100 101 100 96 94
100 100 98 94 96 100 99 99 101 99 100 102 84 54 39 37 34 30 29 26 25 27 30 32 33 32 31 31 32 34 34 35 36 36 36 36 34 32 32 30 29 29 31 34 36 37 38 36 35 36 41 52 68 82 93 101 101 95 97 100 94 87 89 96 100 100 100 101 100 100 101 100 99 99
101 100 98 97 100 100 99 101 101 99 99 93 72 49 42 38 30 26 25 26 28 31 33 34 32 31 32 34 36 38 39 39 40 40 39 38 37 36 34 33 31 29 28 31 35 36 38 38 36 35 38 44 58 76 92 102 101 97 97 100 100 96 96 99 99 98 100 101 100 100 101 100 99 101
101 100 99 99 100 100 100 100 100 101 99 84 59 44 40 32 24 24 26 28 31 33 34 33 32 32 36 38 41 42 43 44 44 44 43 41 40 39 37 35 34 31 27 27 31 34 36 38 37 35 34 35 49 76 98 102 98 100 100 98 101 101 97 98 100 98 99 101 100 100 100 100 100 100
99 101 100 99 99 100 101 100 100 99 87 66 48 40 35 26 23 26 29 30 33 34 34 32 33 36 39 42 44 46 47 48 48 47 47 46 44 43 41 39 38 37 34 30 30 31 33 34 34 33 32 32 40 66 95 102 98 100 101 99 101 99 93 95 101 100 100 101 100 100 100 99 100 100
96 99 100 100 100 100 99 98 96 84 63 45 39 36 29 23 24 27 30 33 35 34 33 33 35 39 42 44 45 47 47 49 50 50 51 51 49 46 44 42 41 42 42 39 37 35 33 32 29 26 26 26 27 44 73 90 94 98 100 97 97 97 94 98 102 101 100 101 99 99 100 99 100 101
96 96 97 99 100 99 96 93 83 61 41 35 33 27 22 23 26 29 31 34 35 33 33 35 39 42 44 45 45 46 47 48 50 51 53 53 52 50 48 46 45 45 45 44 43 42 40 39 37 32 27 24 22 26 40 56 74 91 99 98 99 100 98 99 101 100 101 101 100 100 100 100 100 100
93 93 94 97 99 97 95 89 72 46 32 31 28 21 20 24 28 32 34 35 34 33 34 38 41 43 44 45 45 45 46 47 49 51 53 55 56 54 50 48 48 47 47 49 49 48 47 49 51 48 42 37 34 30 28 34 56 85 99 98 98 100 99 96 96 97 99 101 101 100 100 101 100 99
91 93 94 94 94 93 92 83 61 38 29 28 23 19 22 26 29 33 36 34 33 33 35 39 42 44 46 46 46 46 47 49 52 53 54 55 57 57 55 52 50 48 48 49 51 52 52 54 57 56 53 49 47 43 33 26 38 69 95 102 99 99 101 98 93 91 95 100 101 101 101 99 94 93
87 90 92 91 90 89 85 70 48 31 27 25 20 19 24 29 32 35 35 33 32 34 36 39 42 45 47 48 48 49 50 52 54 56 57 58 59 61 62 59 55 52 50 49 50 53 55 57 61 61 58 54 53 52 46 35 31 46 76 98 101 99 101 101 96 91 93 97 99 100 101 99 92 91
88 87 88 88 88 84 70 50 34 27 25 21 19 22 26 30 34 37 36 33 33 34 37 40 43 46 49 49 50 51 53 55 57 58 60 62 63 64 67 66 63 58 54 50 50 53 55 59 63 64 61 57 52 51 51 46 36 33 51 79 98 102 100 100 99 96 94 96 100 100 99 99 97 97
94 92 91 92 92 81 59 37 26 25 24 20 18 23 29 32 35 36 34 32 32 34 37 40 43 47 50 50 51 53 55 57 59 60 61 64 66 69 72 73 71 66 60 55 54 54 57 61 65 65 62 57 51 46 44 44 39 32 34 54 82 101 103 99 99 100 98 98 100 100 100 100 98 98
100 98 96 98 92 70 42 27 24 23 20 19 20 25 30 33 36 37 36 33 33 35 38 40 43 47 50 52 52 54 56 60 62 63 64 64 67 71 75 78 78 74 68 62 59 59 60 62 63 61 57 53 49 46 45 44 42 37 31 35 57 86 102 102 99 100 101 100 100 99 100 101 100 99
98 85 70 63 58 43 26 22 25 22 18 18 21 27 32 35 37 39 38 34 33 34 37 39 43 46 49 51 52 53 57 61 64 66 68 67 67 70 75 81 84 82 75 68 64 62 60 59 58 57 55 54 53 52 51 48 43 40 36 31 37 59 86 100 102 100 100 100 101 100 99 99 99 99
94 81 59 38 28 25 24 24 23 19 18 20 22 27 33 36 38 38 36 33 32 34 36 39 42 45 48 50 51 52 56 60 64 67 70 71 71 72 75 81 87 87 81 71 65 63 61 59 59 58 57 57 58 57 55 51 46 41 40 36 33 40 60 83 97 101 101 100 100 100 100 99 98 98
95 93 83 63 40 25 22 24 22 19 18 20 23 28 34 36 38 38 37 35 34 34 36 39 41 44 47 48 49 52 55 59 63 67 69 72 74 77 79 84 88 89 85 75 67 64 63 62 62 62 62 62 63 61 58 55 50 44 40 38 36 36 44 60 80 92 98 101 101 100 99 100 100 99
98 98 99 93 75 49 29 23 22 20 18 19 22 28 33 37 39 39 39 38 37 36 38 40 42 44 47 48 50 53 56 58 62 66 70 74 77 80 84 88 90 91 87 79 71 67 66 64 63 65 66 66 65 63 60 56 53 49 43 38 36 37 40 49 63 78 89 97 101 101 100 100 100 100
Wind_Speed
42 43 43 44 45 46 46 46 46 46 47 48 47 46 45 43 36 27 23 25 27 31 36 35 33 32 30 29 29 28 27 25 24 24 25 26 27 27 26 26 27 28 28 30 31 32 33 33 34 35 36 37 38 38 37 36 35 35 34 33 33 33 34 34 35 36 37 38 37 36 37 38 41 43
42 43 42 43 44 45 47 47 46 46 46 47 48 47 46 44 44 38 28 21 19 22 30 32 30 30 28 27 28 28 27 26 25 25 26 28 29 28 28 28 28 28 28 29 31 32 33 33 34 35 36 38 39 40 40 38 35 33 33 33 33 34 34 35 36 36 36 37 37 36 35 36 37 38
42 42 42 43 44 44 46 48 46 44 45 47 48 49 47 45 45 44 36 28 21 19 24 28 29 29 27 26 29 29 28 28 27 28 28 29 29 29 29 29 29 28 28 29 31 32 33 34 35 36 37 38 39 40 41 40 36 34 34 34 34 35 35 36 37 37 37 38 38 37 37 37 37 37
41 42 43 44 43 43 46 47 45 44 45 47 48 48 48 46 45 44 41 38 30 24 24 27 27 28 27 26 28 29 29 29 30 30 30 29 29 29 30 31 30 29 29 30 31 32 33 34 35 37 37 39 39 40 41 40 37 35 35 35 35 36 37 36 37 38 38 39 38 38 39 39 39 38
41 41 43 44 44 43 45 45 43 44 44 46 48 49 49 47 46 45 43 42 38 31 29 29 29 29 29 29 30 31 30 30 31 31 31 30 29 29 31 32 31 30 30 30 31 32 33 35 36 37 37 38 39 40 41 39 37 35 35 35 37 37 38 38 38 39 39 39 39 40 40 40 41 40
42 42 42 43 44 45 45 43 41 42 44 46 48 49 49 48 47 46 44 42 40 35 31 30 30 31 31 31 31 31 31 30 30 31 31 30 30 31 32 32 32 31 31 31 31 32 34 34 35 36 37 38 38 38 37 36 34 35 36 37 39 39 39 39 39 40 40 41 41 41 41 41 42 42
42 44 43 42 43 45 45 43 41 41 42 45 47 49 49 48 47 47 45 41 40 37 32 29 29 30 30 30 30 30 30 30 30 31 30 29 30 32 32 31 31 31 31 31 31 32 33 33 34 34 35 36 37 37 36 36 37 38 40 42 44 45 45 45 45 44 45 44 43 43 43 43 44 44
40 43 44 43 43 44 44 44 43 42 42 44 47 48 48 47 46 46 45 42 38 36 34 30 28 29 29 29 28 29 29 30 30 31 30 29 30 31 31 30 31 31 31 30 31 31 31 31 31 32 33 34 35 36 37 39 41 43 45 47 49 50 51 51 50 50 50 49 47 46 45 45 45 45
38 41 42 43 44 44 44 45 44 44 44 44 46 48 48 47 46 46 45 42 38 35 35 32 28 27 28 28 28 28 29 29 30 30 30 29 30 31 31 30 31 31 30 29 29 29 29 30 30 31 32 33 34 36 39 41 43 45 46 48 50 51 51 51 51 51 52 52 52 51 50 50 49 48
37 39 40 42 44 45 44 44 45 45 45 45 45 46 46 46 45 45 45 42 38 35 34 32 29 26 27 28 27 27 28 28 27 27 28 28 28 28 29 29 30 29 29 28 28 28 29 29 29 30 31 32 34 36 38 40 42 44 46 47 49 49 50 50 51 52 53 53 55 55 54 54 53 53
36 37 38 40 42 44 44 44 45 45 45 46 45 43 43 43 44 44 44 42 38 36 33 32 30 27 26 27 27 27 26 26 26 25 24 24 23 25 26 28 29 27 26 27 28 29 29 29 30 30 31 32 33 35 36 38 40 42 43 45 46 47 48 49 50 51 52 53 55 56 56 56 56 55
37 36 37 38 40 43 44 45 45 44 44 45 44 42 41 42 43 43 44 42 39 36 33 31 30 28 26 26 26 26 25 24 22 20 20 20 22 24 26 28 27 25 25 27 29 30 30 31 33 33 34 35 35 35 36 37 38 39 40 42 43 44 46 47 50 51 52 54 55 57 58 58 58 57
38 36 36 37 39 41 43 44 45 44 44 44 43 41 40 41 42 43 44 42 38 35 33 31 30 28 26 26 25 25 25 23 20 18 18 20 21 24 27 28 25 23 25 28 31 32 32 33 35 37 39 39 38 38 38 37 38 37 37 39 40 41 44 45 48 50 51 54 55 56 56 55 56 56
38 37 36 36 37 39 42 44 44 43 43 43 42 41 39 38 40 42 44 42 38 35 33 32 30 29 28 28 27 27 26 22 18 17 17 19 22 24 27 28 24 21 25 30 33 35 34 35 38 40 42 43 41 41 41 40 39 38 38 38 39 40 41 43 45 47 48 51 52 53 53 52 52 53
34 34 34 35 36 38 41 43 43 42 42 42 41 41 39 36 36 38 40 41 38 35 33 31 30 30 29 28 27 26 23 19 17 17 19 21 23 23 25 28 26 22 24 30 36 38 36 37 40 42 44 45 43 42 42 41 40 40 40 40 39 39 41 42 44 46 47 48 48 49 50 50 50 51
32 32 32 33 35 36 39 42 42 41 41 41 40 40 38 35 33 33 33 35 35 34 32 31 30 30 28 27 26 24 22 19 18 19 21 22 23 23 24 27 28 24 24 31 37 41 40 38 40 44 45 45 43 43 42 41 41 41 40 40 40 40 42 43 44 45 46 46 47 47 49 50 50 50
34 34 33 34 35 36 38 40 40 39 39 38 38 37 37 34 31 29 28 27 28 28 28 29 29 28 26 25 24 23 22 21 20 21 23 24 24 25 25 27 28 26 26 32 38 44 43 38 39 45 45 43 44 44 43 43 44 42 40 40 40 41 42 42 42 43 44 45 47 48 49 49 50 50
34 35 35 34 35 35 38 39 39 38 37 36 36 35 35 33 29 28 27 26 27 27 26 26 25 25 25 23 22 22 22 21 22 24 25 24 23 24 25 27 28 26 26 30 36 45 43 37 39 46 45 44 46 47 46 46 45 43 41 40 41 42 41 40 41 42 43 44 46 47 48 49 50 50
34 34 34 34 33 34 37 39 37 35 35 36 35 35 35 33 29 28 28 28 28 27 26 25 24 24 23 21 20 21 21 23 24 24 22 21 21 24 26 28 28 26 25 26 33 43 43 37 40 45 45 45 49 50 49 48 45 42 41 39 38 38 38 38 39 41 42 44 45 47 48 49 50 51
35 35 35 33 31 33 36 37 35 33 33 35 36 35 34 32 29 29 28 27 26 26 25 24 23 21 20 19 19 21 22 24 23 20 18 18 20 25 29 30 30 27 26 27 31 39 41 37 40 44 45 47 51 51 49 48 45 41 38 36 35 36 35 35 38 40 42 43 44 46 47 48 49 50
35 36 35 31 30 32 33 33 32 31 32 35 37 36 34 32 30 28 27 25 24 23 22 20 19 19 20 21 22 23 24 22 19 17 18 19 21 25 29 31 31 29 28 27 28 34 39 37 38 44 46 48 50 51 50 46 42 39 38 37 36 35 33 33 35 37 39 42 44 45 47 47 48 48
34 35 33 29 27 29 29 28 29 30 32 35 37 38 36 33 29 27 27 26 24 22 21 21 22 23 24 23 23 23 21 18 16 17 18 19 21 24 27 28 31 32 30 27 27 32 37 37 37 42 46 50 52 50 46 44 42 42 44 44 40 35 32 32 33 34 35 38 42 45 46 46 47 46
33 32 29 26 25 24 24 26 27 28 30 33 36 38 36 31 29 28 27 26 25 25 24 24 25 25 24 23 22 20 17 15 16 17 18 19 21 23 25 26 29 31 31 29 28 32 35 36 37 37 40 47 53 51 46 46 48 49 48 46 40 32 30 32 34 35 36 37 39 42 44 45 46 46
32 29 26 24 24 23 22 23 25 27 29 30 33 35 32 29 28 27 26 25 24 24 24 24 24 25 24 22 19 16 14 15 16 17 18 19 21 23 24 25 27 29 30 28 27 31 34 36 37 35 32 36 47 53 53 52 54 52 49 46 39 31 30 33 35 36 38 40 40 40 42 43 44 45
31 27 25 25 24 22 20 20 23 28 28 26 28 30 28 26 25 24 24 24 23 22 23 24 23 22 20 18 16 14 14 15 16 16 18 20 21 23 24 25 27 30 29 25 25 29 33 33 34 34 33 35 43 51 56 58 56 51 48 46 42 35 33 35 38 40 43 44 44 43 42 43 43 44
29 26 25 23 21 19 19 19 23 28 26 23 25 26 25 22 21 21 21 21 20 21 22 22 21 19 18 16 14 14 14 15 15 17 18 19 21 22 23 24 27 29 28 25 24 27 30 31 31 31 33 37 41 46 51 56 56 51 47 47 45 43 40 37 39 44 46 46 46 44 41 40 41 43
27 25 23 20 18 19 20 21 24 27 25 22 22 22 21 21 21 21 21 20 20 20 21 20 19 18 16 14 13 12 12 13 14 15 17 18 19 21 22 23 25 27 27 24 23 24 27 29 30 30 31 35 41 45 49 53 54 52 51 50 48 47 42 37 39 46 47 45 44 43 41 39 38 40
23 22 20 17 18 22 24 23 25 26 25 20 19 20 21 22 22 21 21 20 20 20 20 19 18 16 13 12 11 10 11 12 13 14 15 16 18 20 21 22 23 25 25 23 22 23 25 28 29 29 30 33 38 44 48 52 53 53 53 54 50 45 41 38 40 44 44 42 41 40 39 39 38 37
17 18 18 16 19 23 25 24 24 26 23 18 17 20 22 20 19 20 21 21 21 21 20 17 15 13 12 10 8 8 9 10 11 12 13 15 17 19 20 21 21 22 22 22 22 22 24 28 29 30 31 32 35 40 45 50 53 52 51 51 49 45 42 37 34 38 42 41 39 38 38 39 38 37
15 18 18 18 21 24 25 25 27 27 23 20 19 19 18 17 18 20 22 22 21 19 17 15 12 11 9 8 7 8 8 9 10 11 12 14 15 17 19 20 20 20 20 20 22 23 24 27 29 31 32 31 34 38 40 44 49 49 45 43 44 45 40 32 32 41 44 40 35 35 37 38 37 37
18 20 20 22 25 27 27 29 29 28 25 22 20 17 16 18 21 22 22 21 19 17 15 14 11 9 7 7 7 6 7 8 9 11 12 13 14 16 18 18 19 19 18 18 20 23 25 26 28 30 32 32 33 34 34 36 41 44 41 37 37 40 38 36 41 44 38 34 33 32 35 36 35 35
23 24 25 27 29 30 31 31 30 27 25 22 18 16 17 21 22 21 20 19 17 15 14 12 11 8 7 6 5 5 6 7 9 10 12 13 14 15 17 18 19 20 19 18 19 21 24 26 28 29 31 33 33 29 28 31 33 34 36 35 34 36 39 41 43 38 31 32 33 28 29 34 33 31
28 30 30 31 31 32 33 32 30 27 24 21 18 17 19 21 20 20 19 17 16 15 13 11 10 8 7 5 4 5 6 7 9 10 12 14 15 16 17 18 20 22 22 22 22 22 23 25 27 29 30 31 31 26 23 27 28 28 32 36 37 39 41 40 38 35 33 32 30 25 26 29 29 29
29 31 32 33 32 33 33 32 30 26 22 19 19 20 21 21 20 20 18 16 15 15 13 11 9 8 6 5 4 4 6 7 9 11 12 14 15 17 18 19 20 21 23 24 25 26 26 26 28 29 29 30 30 25 19 22 26 28 32 36 37 39 40 39 37 35 32 29 27 27 26 25 25 27
29 31 32 33 33 32 31 29 25 21 18 18 20 21 22 22 21 19 18 17 15 14 13 11 9 8 7 6 5 5 6 8 10 12 13 15 16 17 19 20 21 21 23 25 26 27 28 29 30 32 31 32 32 29 24 24 28 29 32 34 36 37 38 38 37 35 30 27 26 24 22 23 25 26
28 30 31 32 32 31 28 24 20 16 17 18 20 22 22 22 21 19 17 17 16 14 13 11 9 8 7 6 6 6 7 8 10 12 14 15 17 18 19 20 22 23 23 24 26 27 28 29 31 33 34 36 36 34 31 28 25 26 30 34 35 36 37 38 37 35 31 27 24 21 20 23 25 24
25 28 29 29 29 27 24 20 17 15 17 19 21 22 22 21 19 18 17 17 17 15 13 11 10 9 8 7 7 7 8 9 10 12 14 16 17 19 20 21 23 24 24 24 25 26 28 29 30 31 33 34 35 36 37 32 25 22 26 32 35 35 36 37 38 36 32 28 26 22 18 24 28 27
21 24 25 25 24 22 20 17 16 16 18 20 22 22 22 20 19 18 18 17 17 15 13 12 11 10 9 8 8 9 9 10 11 12 14 16 18 20 21 22 23 24 25 25 25 26 26 28 29 30 31 32 32 34 37 38 33 27 25 28 33 35 33 33 35 36 33 31 28 21 12 16 23 23
17 19 21 20 20 18 17 16 17 18 20 22 23 23 22 21 20 19 19 18 17 15 13 12 11 10 10 9 10 10 10 11 12 13 15 16 18 20 21 23 24 25 26 26 26 26 26 27 28 29 30 30 30 30 32 35 38 36 31 28 31 32 30 30 31 33 34 34 30 21 12 5 3 4
14 16 16 16 15 15 15 16 17 19 21 23 23 23 22 20 19 19 19 18 17 15 14 13 12 11 11 11 11 11 11 12 13 14 15 16 18 19 21 22 24 25 26 27 27 27 27 27 27 28 28 29 29 30 31 33 37 39 35 30 27 26 25 25 27 29 31 33 31 23 16 14 10 6
12 13 13 13 13 14 15 16 18 19 21 23 23 22 21 19 18 18 18 18 17 16 15 14 13 12 12 12 12 12 12 13 14 15 16 17 18 19 20 21 23 25 26 27 28 28 28 27 26 26 27 28 29 30 32 34 37 39 37 32 28 23 18 16 19 22 25 27 28 24 15 12 11 8
11 10 11 12 13 14 15 16 17 20 22 23 23 22 20 19 19 19 19 19 18 17 16 15 14 13 13 13 13 13 13 14 14 15 16 18 19 20 21 22 23 25 26 27 28 28 27 27 27 27 27 28 29 30 32 34 35 37 38 36 33 28 20 14 13 15 18 20 22 20 16 13 12 13
11 9 9 11 12 13 15 16 18 21 23 24 23 21 20 19 20 20 20 19 18 17 16 15 14 14 14 14 14 14 14 15 15 16 17 18 19 20 22 22 23 24 26 27 28 28 28 27 28 28 28 28 28 29 30 32 33 35 37 37 36 33 28 20 12 9 11 13 13 12 12 12 13 14
11 9 9 9 10 12 14 16 18 21 23 23 23 22 20 20 20 19 18 17 17 17 17 16 15 15 15 15 15 15 15 16 16 17 17 19 20 21 22 23 24 24 26 27 29 30 29 28 27 27 27 28 28 29 29 31 32 33 34 35 35 35 34 30 22 14 10 10 10 8 7 6 6 7
10 10 10 10 11 11 12 14 18 21 23 23 23 22 21 20 19 18 18 18 18 17 17 16 16 15 16 16 16 16 16 16 17 17 18 19 20 21 22 23 24 25 26 27 29 30 30 30 28 28 27 27 28 28 29 30 31 32 33 33 34 33 33 34 32 26 20 15 12 10 8 7 6 5
Wind_Direction
253 251 251 252 252 253 252 250 247 245 247 248 246 246 244 240 236 236 241 246 248 252 254 253 251 250 248 251 256 257 258 259 259 258 259 261 265 268 267 266 266 266 268 269 270 272 273 274 275 275 275 274 273 272 270 270 270 270 270 270 269 270 271 271 270 268 267 268 270 270 269 268 264 261
256 253 251 251 252 252 252 251 250 247 247 247 245 245 246 244 240 236 237 244 241 244 252 253 251 250 247 248 253 256 258 260 260 260 263 266 269 271 270 269 268 269 270 271 272 273 274 275 275 275 275 274 272 270 269 268 268 268 268 269 269 269 270 271 271 271 271 270 270 271 272 272 271 269
256 255 252 250 251 251 251 251 251 249 247 246 245 245 245 245 243 239 237 241 239 235 247 252 251 251 248 249 254 257 260 262 263 264 266 269 271 272 272 271 271 272 272 273 274 275 276 275 274 274 273 273 272 269 267 267 266 267 267 268 269 269 270 270 270 270 270 270 269 270 270 270 270 271
258 256 254 251 250 249 250 251 251 250 248 246 245 245 246 245 244 240 237 238 238 237 244 250 251 252 251 252 255 259 263 265 266 268 268 271 274 275 275 274 274 275 275 275 276 276 277 276 274 274 273 272 272 269 267 266 265 266 266 267 268 268 268 268 269 269 269 268 268 268 269 269 269 269
259 257 255 254 252 250 249 250 250 249 247 246 245 245 245 245 243 240 238 238 239 239 243 247 249 253 256 256 258 260 262 264 266 269 271 273 277 278 278 278 278 279 279 278 278 278 277 277 275 274 274 273 272 269 267 265 265 265 266 267 267 267 268 267 268 268 267 268 267 268 268 267 268 268
259 258 256 255 253 252 251 250 250 249 247 246 245 244 244 244 243 241 239 238 238 238 241 247 251 254 257 257 259 261 261 263 266 269 272 275 279 280 280 282 284 284 284 283 282 280 278 278 277 276 275 274 271 269 267 265 265 265 265 266 265 266 267 266 266 266 266 266 266 267 267 266 267 267
260 259 258 256 254 253 252 250 248 247 246 246 246 246 245 245 245 243 240 238 238 238 239 244 249 253 256 257 258 260 263 265 266 269 273 276 279 281 283 286 288 288 287 286 284 282 280 279 278 276 275 273 272 270 267 265 265 264 263 263 263 264 265 264 264 266 266 266 266 266 267 266 266 267
262 260 259 258 256 254 252 249 247 246 244 245 245 245 246 247 246 243 239 238 239 239 238 240 246 251 255 257 258 260 264 267 269 272 276 278 280 283 285 288 290 289 288 286 284 282 280 279 278 277 276 275 275 273 271 267 265 265 264 264 263 263 265 265 266 267 267 266 266 265 266 266 265 266
262 261 261 259 257 256 253 249 247 246 244 244 244 245 245 246 244 241 239 239 238 237 236 238 243 249 252 255 257 261 264 268 272 276 279 282 284 286 289 291 291 291 290 289 287 285 283 282 281 280 279 278 276 274 271 269 267 266 265 265 265 265 266 267 267 267 266 266 266 266 266 267 266 265
262 262 262 260 258 256 253 251 250 248 245 244 243 244 244 244 243 239 237 238 237 236 236 238 240 244 250 254 257 260 265 268 271 276 282 285 287 289 293 293 293 295 296 295 295 293 292 291 289 288 285 282 279 276 273 271 269 267 267 266 266 267 267 267 267 266 267 267 267 267 267 266 266 266
262 263 262 259 257 255 251 251 250 248 246 246 245 245 244 243 242 239 235 235 235 233 234 236 238 240 245 252 257 259 263 266 270 277 281 282 284 287 290 292 294 299 301 299 300 300 299 300 297 294 291 286 284 281 278 276 273 270 270 269 269 269 268 267 267 266 266 266 266 266 266 266 266 265
261 262 262 258 256 253 250 250 249 246 246 247 245 244 243 241 240 236 233 232 232 232 233 235 237 238 241 248 254 257 259 263 267 272 275 274 278 285 289 292 296 302 304 302 302 302 303 304 303 301 298 293 291 288 285 282 278 274 273 271 270 269 267 267 266 265 265 265 266 266 266 265 265 264
258 259 259 258 256 254 252 250 249 247 248 248 247 244 242 240 237 234 231 230 229 230 232 234 234 235 238 242 247 250 254 260 264 266 268 271 280 290 293 293 298 305 306 304 303 304 307 308 307 306 304 301 300 298 294 290 285 281 277 274 272 269 267 265 265 265 265 265 265 266 265 264 263 263
256 255 256 257 256 254 252 249 249 248 247 248 249 247 245 243 238 232 228 227 228 229 230 233 232 233 236 239 243 248 253 260 263 262 269 277 287 294 293 294 300 307 307 306 305 306 309 310 308 307 305 304 305 304 300 297 293 289 285 281 277 274 271 270 269 268 267 266 266 265 264 264 262 261
258 256 256 257 256 254 251 248 247 247 247 247 247 246 245 245 242 237 231 226 226 228 230 231 232 233 237 240 245 251 256 258 257 262 274 283 290 293 292 294 301 308 310 308 306 306 307 308 308 306 304 305 306 304 301 299 296 292 289 286 284 282 280 277 274 272 269 267 266 265 263 262 261 260
259 259 258 257 256 254 250 247 245 244 244 244 244 243 242 241 241 241 236 231 230 230 230 230 232 235 238 242 247 252 254 254 257 269 281 286 289 288 287 291 300 310 312 306 304 304 304 306 307 304 303 305 305 303 300 298 294 291 291 290 288 286 283 279 274 271 268 266 264 263 262 261 261 260
258 259 258 255 254 252 248 245 243 241 240 238 239 239 238 237 236 235 233 233 235 234 231 231 233 237 241 244 248 251 252 256 264 277 284 286 286 284 286 293 301 309 309 305 304 301 301 308 308 302 303 307 306 303 302 299 297 296 296 294 291 289 285 280 275 271 267 265 264 263 263 262 261 260
257 257 256 252 251 249 244 241 240 239 236 232 230 230 231 230 228 226 224 224 227 228 227 228 231 236 240 241 245 252 257 265 274 281 283 282 281 283 288 294 298 304 307 307 303 298 301 310 307 303 307 309 306 304 303 302 301 301 301 297 295 292 286 279 276 272 269 266 265 264 263 262 261 260
256 255 253 251 251 247 242 239 238 236 233 228 222 221 224 224 218 217 220 221 223 224 224 225 227 232 239 244 251 257 264 270 275 277 277 277 283 289 293 296 298 303 309 307 300 297 303 311 307 306 310 309 305 305 304 303 304 304 303 301 297 291 284 278 274 271 269 268 266 265 264 262 261 260
254 253 251 250 248 245 240 237 237 235 231 224 218 216 219 218 212 212 218 222 223 224 224 226 229 235 244 250 252 255 262 269 272 273 276 283 290 293 294 296 299 304 308 308 303 300 304 310 308 308 310 309 305 305 304 305 306 304 302 302 297 290 286 283 279 274 271 269 267 265 264 263 262 260
251 249 248 247 243 240 238 235 234 233 228 220 214 212 213 213 210 211 215 217 219 221 225 230 234 238 242 245 250 259 266 270 270 271 279 286 289 289 289 293 298 302 306 309 307 302 304 310 309 308 310 309 305 305 307 307 307 305 305 305 300 294 293 292 289 284 277 271 268 266 265 263 262 261
246 244 243 243 240 237 235 233 229 225 222 217 211 209 209 209 209 209 210 209 209 212 217 223 228 234 241 249 258 263 263 262 264 270 278 283 284 285 287 292 298 302 306 311 311 305 306 309 309 309 312 310 307 308 310 309 308 307 307 306 301 294 293 298 299 295 287 277 269 265 263 263 262 261
237 237 238 238 238 233 229 228 222 214 214 215 211 209 209 207 207 209 209 208 207 209 214 221 227 235 245 253 255 253 250 254 263 269 274 278 281 284 288 294 298 300 306 314 315 309 306 308 309 311 311 310 310 312 311 307 307 306 306 306 301 291 289 300 306 304 298 289 278 269 263 261 260 258
229 229 230 231 230 225 223 223 213 204 209 215 212 209 208 207 208 210 209 209 213 216 221 226 232 240 246 246 242 240 245 255 261 267 273 278 283 286 289 294 296 296 304 315 315 308 306 308 311 311 305 301 305 309 310 307 306 307 310 310 306 294 290 298 305 305 301 298 292 280 268 261 259 256
226 225 223 220 219 217 217 214 201 197 207 214 208 206 208 209 210 209 208 211 216 219 224 231 235 237 235 232 233 238 247 255 263 272 278 281 284 286 289 294 295 296 304 313 311 305 305 307 310 311 304 297 300 305 311 311 309 309 312 313 310 304 298 297 301 304 304 303 300 290 276 265 258 254
221 222 218 214 212 208 205 199 190 193 204 206 201 203 207 207 208 207 207 211 214 217 223 226 225 222 220 223 231 240 249 260 270 277 280 283 285 287 290 294 295 298 304 310 309 305 305 307 311 311 306 304 303 304 307 310 311 312 313 312 311 311 307 300 297 302 305 303 300 293 283 270 260 255
218 217 211 205 202 197 192 184 181 191 202 202 195 197 201 202 202 202 203 207 211 213 214 211 208 210 213 221 232 243 255 267 274 278 283 287 289 291 294 295 296 298 302 305 306 307 308 312 316 316 312 309 307 304 303 305 310 313 313 311 309 309 309 304 298 301 305 302 296 291 283 272 261 254
220 213 201 194 192 187 180 174 176 190 201 199 188 188 194 198 199 199 201 204 203 201 199 198 201 207 213 221 234 250 262 270 277 283 289 293 295 296 298 298 298 299 299 301 305 310 314 318 322 323 319 313 307 305 304 305 307 308 309 311 311 310 310 307 301 302 304 301 294 287 278 271 261 252
215 202 188 184 183 177 171 168 176 188 196 195 188 188 193 198 198 196 196 194 191 190 191 194 199 207 214 223 237 253 263 271 282 290 294 298 300 300 300 300 299 298 299 303 309 316 319 322 326 327 324 318 311 306 303 303 304 305 307 310 312 312 311 307 302 301 301 300 293 282 273 269 263 253
194 183 176 173 171 167 165 170 179 185 188 191 193 194 196 196 190 185 184 183 184 187 189 191 197 204 212 222 236 253 267 278 289 296 300 303 305 305 306 307 306 305 306 309 315 319 321 324 329 330 327 322 315 309 305 301 301 305 309 310 310 312 310 303 297 299 303 306 300 284 274 271 265 256
174 167 163 164 164 165 169 176 182 184 185 191 196 193 187 182 177 176 178 180 181 184 186 190 195 199 207 221 238 259 276 288 297 303 307 311 312 313 314 314 313 313 314 316 319 322 324 327 330 332 332 329 323 318 311 303 301 305 311 312 310 308 303 297 298 303 309 315 310 291 276 271 266 258
162 158 159 163 166 169 174 179 182 184 188 194 198 190 179 176 174 175 178 180 181 184 188 192 195 197 206 222 241 266 285 297 306 310 315 318 320 322 324 325 324 323 322 323 324 325 326 328 330 332 334 335 335 330 317 305 305 309 312 313 308 298 295 299 307 314 322 323 315 299 279 270 263 254
161 160 164 168 170 173 177 181 184 188 193 197 196 188 181 178 176 176 177 179 183 188 190 192 194 198 207 221 241 270 291 306 314 318 321 325 328 332 334 335 336 334 331 330 330 329 329 329 329 332 335 337 341 341 323 310 315 318 312 307 302 297 301 312 320 324 328 327 320 306 288 272 259 249
167 166 169 172 174 178 182 185 189 192 194 193 189 185 183 181 179 179 180 181 184 189 191 192 193 197 207 223 246 272 296 311 319 324 328 330 333 337 340 342 342 340 337 336 335 335 334 332 332 333 336 337 342 349 343 326 324 323 314 308 307 308 314 324 328 327 331 335 328 312 292 270 253 246
173 173 174 176 179 184 187 190 192 192 190 189 188 186 184 182 181 183 183 185 187 190 192 194 196 202 214 230 252 277 301 315 322 327 330 333 337 341 343 345 346 345 343 341 339 339 338 339 340 339 340 340 342 349 355 347 336 329 322 317 317 319 322 328 331 332 335 339 336 319 291 268 258 250
178 179 180 181 184 189 191 193 193 191 189 190 189 187 185 185 184 184 186 190 194 195 195 196 200 209 224 241 261 282 303 315 322 327 330 335 339 341 343 346 347 347 347 345 343 343 342 344 346 345 344 344 343 343 348 351 347 341 335 327 322 323 327 331 333 335 338 341 340 328 298 273 264 255
183 184 186 187 190 193 194 195 195 193 193 193 191 189 188 188 187 187 189 193 197 200 201 204 208 218 232 250 269 286 303 313 319 326 330 335 339 341 343 345 345 346 348 348 346 346 345 346 348 348 346 344 340 335 338 345 354 359 349 336 328 327 332 335 333 333 340 345 345 338 305 269 259 255
188 188 190 193 194 196 198 199 198 196 195 194 192 190 189 188 190 193 196 198 200 202 206 210 216 226 238 254 272 286 299 309 316 324 330 335 340 342 343 344 344 345 346 347 347 348 348 347 348 347 345 342 336 331 332 336 347 0 4 352 340 333 332 335 334 335 342 348 350 353 330 273 265 261
192 191 191 194 196 199 200 200 200 199 197 194 192 192 191 192 194 197 201 204 206 208 212 216 223 232 243 256 272 285 295 305 314 322 329 334 338 340 342 343 343 343 344 345 347 348 348 348 347 345 343 340 336 335 333 333 340 351 1 3 355 342 333 335 337 338 343 348 351 4 31 36 302 251
191 191 191 193 197 200 202 201 201 201 199 196 194 194 195 197 200 202 204 207 210 213 218 224 229 237 247 260 272 284 294 303 311 318 325 331 335 337 339 341 341 341 343 344 346 347 347 347 346 342 339 337 336 339 340 338 340 347 353 358 1 351 335 333 339 342 345 346 347 357 30 56 66 91
184 188 192 196 201 203 203 203 203 201 198 197 196 197 199 202 205 207 209 211 214 217 222 228 234 240 250 262 273 283 292 301 308 314 320 326 330 333 336 338 340 341 341 342 343 345 344 343 341 338 337 337 339 344 346 345 343 345 347 350 357 358 345 334 340 347 349 347 345 351 13 43 52 59
180 185 190 195 199 201 202 203 203 201 198 198 198 199 202 204 207 209 212 214 217 221 225 231 237 244 253 264 274 283 290 297 304 311 317 321 325 328 332 336 338 339 339 339 340 341 340 339 339 338 340 343 346 348 349 347 345 345 345 346 350 356 358 351 345 351 357 354 349 352 5 17 20 21
186 190 192 195 198 201 202 203 203 201 200 200 201 202 205 208 211 213 215 218 221 225 229 234 241 248 256 266 274 281 288 294 301 308 313 317 321 324 328 332 335 336 336 336 336 338 339 339 339 340 342 346 348 348 347 347 346 347 348 348 347 350 355 358 354 356 5 3 355 356 7 11 4 1
198 200 204 206 207 208 207 206 204 202 202 203 204 206 209 213 216 218 220 223 227 229 233 238 244 250 258 267 274 281 287 293 299 305 310 313 317 321 324 328 331 333 334 335 335 336 337 338 340 341 343 345 348 348 347 348 348 348 350 351 349 349 353 357 358 357 359 4 3 2 12 19 7 359
218 221 223 222 219 217 216 212 208 206 205 206 208 211 213 215 218 220 222 226 230 232 236 242 246 253 260 267 274 280 286 292 298 303 307 309 313 317 321 324 327 330 333 334 334 334 335 336 338 341 342 343 346 346 346 348 350 350 350 352 353 353 354 357 359 0 0 1 1 359 7 21 21 16